GW4444 Weather Reports


time (UTC)temp
C
wind
direction
speed
KPH
gust
KPH
rain 1hr
cm
rain 24hr
cm
rain mn
cm
humidity
%
barometer
mb
20260506114516 7 270 16.1 24.1 0.00 0.08 0.00 62 1012.5
20260506113016 7 270 16.1 24.1 0.00 0.08 0.00 63 1012.4
20260506111516 7 293 19.3 25.7 0.00 0.08 0.00 62 1012.6
20260506110036 8 293 20.9 29.0 0.00 0.08 0.00 62 1012.3
20260506104516 8 293 20.9 27.4 0.00 0.08 0.00 62 1012.0
20260506103016 8 293 20.9 25.7 0.00 0.08 0.00 62 1011.9
20260506101536 8 293 17.7 25.7 0.00 0.08 0.00 64 1011.6
20260506100036 7 315 8.0 14.5 0.00 0.08 0.00 65 1011.6
20260506094516 7 338 8.0 12.9 0.00 0.08 0.00 63 1011.9
20260506093036 8 338 4.8 11.3 0.00 0.08 0.00 62 1011.7
20260506091516 8 248 3.2 8.0 0.00 0.08 0.00 61 1011.8
20260506090016 8 248 1.6 11.3 0.00 0.08 0.00 59 1012.2
20260506084516 9 315 3.2 9.7 0.00 0.08 0.00 59 1011.5
20260506083016 9 315 8.0 16.1 0.00 0.08 0.00 58 1011.3
20260506081516 10 338 8.0 14.5 0.00 0.08 0.00 57 1011.0
20260506073036 9 45 6.4 12.9 0.00 0.08 0.00 73 1011.4
20260506071516 9 23 6.4 16.1 0.00 0.08 0.00 72 1011.7
20260506061516 10 68 8.0 17.7 0.00 0.08 0.00 68 1010.6
20260506044516 13 315 17.7 30.6 0.00 0.08 0.08 53 1010.4
20260506043016 13 315 19.3 38.6 0.00 0.08 0.08 51 1009.9
20260506041556 13 293 20.9 30.6 0.00 0.08 0.08 50 1010.1
20260506040015 14 293 16.1 22.5 0.00 0.08 0.08 48 1009.5
20260506034536 15 270 14.5 29.0 0.00 0.08 0.08 42 1009.8
20260506033016 15 270 11.3 27.4 0.00 0.08 0.08 46 1009.8
20260506031515 15 270 4.8 8.0 0.00 0.08 0.08 47 1009.7
20260506030035 16 270 9.7 22.5 0.00 0.08 0.08 43 1009.2
20260506024516 15 158 6.4 24.1 0.00 0.08 0.08 45 1008.5
20260506023015 15 180 1.6 9.7 0.00 0.08 0.08 52 1008.5
20260506021517 15 158 6.4 14.5 0.00 0.08 0.08 52 1007.9
20260506020017 15 113 6.4 14.5 0.00 0.08 0.08 53 1007.9
20260506014517 15 113 4.8 8.0 0.00 0.08 0.08 52 1008.1
20260506013017 16 68 4.8 14.5 0.00 0.08 0.08 51 1007.6
20260506011536 16 68 8.0 14.5 0.00 0.08 0.08 52 1007.1
20260506010037 16 68 8.0 16.1 0.00 0.08 0.08 53 1007.1
20260506004517 16 45 8.0 16.1 0.00 0.08 0.08 52 1007.3
20260506003017 16 45 9.7 19.3 0.00 0.08 0.08 52 1007.3
20260506001515 16 45 14.5 22.5 0.00 0.08 0.08 50 1007.3
20260506000017 16 23 16.1 25.7 0.00 0.08 0.08 49 1006.8
20260505234557 16 23 17.7 29.0 0.00 0.08 0.08 51 1006.8
20260505233017 16 23 19.3 30.6 0.00 0.08 0.08 52 1007.1
20260505231517 16 23 22.5 30.6 0.00 0.08 0.08 52 1007.1
20260505230117 16 0 22.5 37.0 0.00 0.08 0.08 52 1006.9
20260505224517 16 0 24.1 35.4 0.00 0.08 0.08 55 1007.3
20260505223017 16 338 24.1 33.8 0.00 0.08 0.08 56 1007.2
20260505221517 15 338 24.1 33.8 0.03 0.08 0.08 61 1007.2
20260505220017 15 338 30.6 43.5 0.03 0.08 0.08 64 1007.2
20260505214517 15 338 27.4 41.8 0.03 0.08 0.08 69 1007.1
20260505213017 16 338 22.5 32.2 0.03 0.08 0.08 54 1007.4
20260505211517 17 338 14.5 27.4 0.00 0.05 0.05 52 1007.3
20260505210037 17 0 16.1 22.5 0.00 0.05 0.05 56 1007.4
20260505204517 16 0 19.3 27.4 0.00 0.05 0.05 60 1007.4
20260505203037 16 338 17.7 29.0 0.00 0.05 0.05 62 1007.4
20260505201537 14 315 19.3 32.2 0.00 0.05 0.05 70 1007.7
20260505200017 13 315 24.1 38.6 0.03 0.05 0.05 67 1007.4
20260505194537 15 0 22.5 38.6 0.03 0.05 0.05 67 1007.6
20260505193037 15 0 25.7 35.4 0.03 0.05 0.05 68 1007.9
20260505191517 15 338 12.9 30.6 0.03 0.05 0.05 71 1008.0
20260505190016 16 0 8.0 19.3 0.00 0.03 0.03 56 1008.9
20260505184517 16 135 16.1 29.0 0.00 0.03 0.03 53 1008.4
20260505183017 16 135 19.3 27.4 0.00 0.03 0.03 52 1008.2
20260505181517 16 135 17.7 29.0 0.00 0.03 0.03 59 1008.6
20260505180016 14 90 12.9 22.5 0.00 0.03 0.03 68 1008.6
20260505174516 13 68 11.3 20.9 0.03 0.03 0.03 72 1008.8
20260505173036 13 68 12.9 22.5 0.03 0.03 0.03 71 1008.5
20260505171516 13 45 14.5 27.4 0.03 0.03 0.03 74 1008.8
20260505170016 12 45 16.1 29.0 0.03 0.03 0.03 74 1008.9
20260505164516 13 338 4.8 27.4 0.00 0.00 0.00 69 1009.1
20260505163016 13 270 6.4 11.3 0.00 0.00 0.00 68 1009.0
20260505161517 13 180 6.4 11.3 0.00 0.00 0.00 65 1009.5
20260505153036 14 248 6.4 11.3 0.00 0.00 0.00 57 1009.7
20260505151516 15 270 11.3 19.3 0.00 0.00 0.00 49 1010.2
20260505124516 14 135 3.2 4.8 0.00 0.00 0.00 48 1010.4
20260505123016 15 225 1.6 4.8 0.00 0.00 0.00 47 1010.4
20260505121516 15 225 3.2 6.4 0.00 0.00 0.00 46 1010.8
20260505120016 15 225 6.4 9.7 0.00 0.00 0.00 46 1010.6